Weather in Polnovat

Russia / Khanty-Mansi Autonomous Okrug — Yugra     63°47′17″N   65°54′37″E
temp.,
°C
wind,
m/s
gust,
m/s
humid.,
%
clouds,
%
prec.,
mm/h
press.,
hPa
HPBL,
m
13 june, sun
sun1323:00+18s22445 0.0 101711
02:00+17s334634 0.0 101713
05:00+18ssw335120 0.0 101748
08:00+23wsw33375 0.0 1017317
11:00+28sw44285 0.0 10171727
14:00+29sw6621100 0.0 10163081
17:00+29wsw572266 0.0 10153123
20:00+25wsw48357 0.0 1015238
14 june, mon
mon1423:00+21w454632 0.0 101567
02:00+19wnw225791 0.0 101627
05:00+19s356371 0.1 1015121
08:00+20ssw476187 0.1 1014304
11:00+25ssw7104361 0.1 10131547
14:00+24ssw71148100 0.0 1011673
17:00+26wsw784363 0.0 10101466
20:00+25sw6105111 0.0 1009616
15 june, tue
tue1523:00+20ssw486755 0.0 1008145
02:00+17ssw478552 0.6 1007102
05:00+18ssw488592 0.9 1006204
08:00+22wsw57625 0.0 1006620
11:00+26wsw674982 0.0 10051501
14:00+26wsw5848100 0.1 1004778
17:00+19n588539 4.1 1007491
20:00+19nnw79625 0.1 1009750
16 june, wed
wed1623:00+14nnw46688 0.1 1010107
02:00+11nne478641 0.0 1011131
05:00+12ne36638 0.0 1012239
08:00+16ene233787 0.0 1012601
11:00+20ese113265 0.0 10111074
14:00+23wsw222852 0.0 10101406
17:00+24w23336 0.0 10091327
20:00+23se23415 0.0 100779
17 june, thu
thu1723:00+17se47485 0.0 100684
02:00+16se48535 0.0 1004102
05:00+18sse397310 0.4 1002212
08:00+25ssw585247 0.0 999604
11:00+28sw694216 0.0 9972160
14:00+18nw81182100 2.6 996520
17:00+8n101690100 22.1 1001613
20:00+7nnw101686100 0.7 1003852